Stanley, ID

3:35 AM MDT on June 27, 2017 (GMT -0600)
Stanley

Weather History for KSNT - April, 2014

Change the Weather History Date:

Friday, April 4, 2014

  Actual Average Record
Temperature  
Mean Temperature 26 °F 31 °F  
Max Temperature 39 °F 44 °F 65 °F (1992)
Min Temperature 13 °F 17 °F -6 °F (2010)
Degree Days  
Heating Degree Days 39 34  
Month to date heating degree days 159 139  
Since 1 July heating degree days 8474 8857  
Cooling Degree Days 0 0  
Month to date cooling degree days 0 0  
Year to date cooling degree days 0 0  
Moisture  
Dew Point 19 °F    
Average Humidity 72    
Maximum Humidity 96    
Minimum Humidity 48    
Precipitation  
Precipitation 0.00 in 0.07 in 0.85 in (2006)
Month to date precipitation 0.98 0.27  
Year to date precipitation 10.51 5.39  
Sea Level Pressure  
Sea Level Pressure 29.92 in    
Wind  
Wind Speed 3 mph (ESE)    
Max Wind Speed 15 mph    
Max Gust Speed 23 mph    
T = Trace of Precipitation, MM = Missing Value Source: NWS Daily Summary

Daily Weather History Graph

Daily Weather History Graph

Search for Another Location

Airport or City:

Trip Planner

Search our weather history database for the weather conditions in past years. The results will help you decide how hot, cold, wet, or windy it might be!

Date:

Astronomy

Apr. 04, 2014 Rise Set
Actual Time 7:15 AM MDT 8:10 PM MDT
Civil Twilight 6:45 AM MDT 8:40 PM MDT
Nautical Twilight 6:10 AM MDT 9:15 PM MDT
Astronomical Twilight 5:34 AM MDT 9:52 PM MDT
Moon 10:27 AM MDT (4/4) 12:40 AM MDT (4/4)
Length of Visible Light 13h 54m
Length of Day
12h 55m
Waxing Crescent, 26% of the Moon is Illuminated
Apr 4
Waxing Crescent
Apr 7
First Quarter
Apr 15
Full
Apr 22
Last Quarter
Apr 29
New

Hourly Weather History & Observations

Time (MDT) Temp. Windchill Dew Point Humidity Pressure Visibility Wind Dir Wind Speed Gust Speed Precip Events Conditions
12:51 AM 19.0 °F 13.9 °F 14.0 °F 81% 30.02 in - South 3.5 mph - N/A   Unknown
1:51 AM 16.0 °F - 12.0 °F 84% 30.01 in - Calm Calm - N/A   Unknown
2:51 AM 16.0 °F - 12.0 °F 84% 29.98 in - Calm Calm - N/A   Unknown
3:51 AM 16.0 °F - 12.9 °F 88% 29.94 in - Calm Calm - N/A   Unknown
4:51 AM 15.1 °F - 12.0 °F 88% 29.95 in - Calm Calm - N/A   Unknown
5:51 AM 14.0 °F - 12.0 °F 92% 29.94 in - Calm Calm - N/A   Unknown
6:51 AM 14.0 °F - 12.0 °F 92% 29.95 in - Calm Calm - N/A   Unknown
7:51 AM 14.0 °F - 12.0 °F 92% 29.96 in - Calm Calm - N/A   Unknown
8:51 AM 17.1 °F - 12.9 °F 84% 29.97 in - Calm Calm - N/A   Unknown
9:51 AM 23.0 °F - 15.1 °F 72% 29.95 in - Calm Calm - N/A   Unknown
10:51 AM 27.0 °F 23.0 °F 16.0 °F 63% 29.93 in - NNW 3.5 mph - N/A   Unknown
11:51 AM 30.9 °F 25.2 °F 18.0 °F 59% 29.90 in - Variable 5.8 mph - N/A   Unknown
12:51 PM 37.0 °F 31.0 °F 21.0 °F 52% 29.87 in - ESE 8.1 mph - N/A   Unknown
1:51 PM 37.0 °F 30.4 °F 24.1 °F 59% 29.86 in - SE 9.2 mph - N/A   Unknown
2:51 PM 37.9 °F 32.7 °F 19.9 °F 48% 29.86 in - SSW 6.9 mph - N/A   Unknown
3:51 PM 35.1 °F 27.4 °F 26.1 °F 70% 29.86 in - NNE 10.4 mph - N/A   Unknown
4:51 PM 37.0 °F 33.3 °F 19.9 °F 50% 29.86 in - Variable 4.6 mph - N/A   Unknown
5:51 PM 35.1 °F 31.0 °F 25.0 °F 67% 29.88 in - NNE 4.6 mph - N/A   Unknown
6:51 PM 36.0 °F 33.3 °F 19.9 °F 52% 29.88 in - ENE 3.5 mph - N/A   Unknown
7:51 PM 32.0 °F 26.4 °F 27.0 °F 82% 29.91 in - Variable 5.8 mph - N/A   Unknown
8:51 PM 30.9 °F - 27.0 °F 85% 29.91 in - Calm Calm - N/A   Unknown
9:51 PM 28.9 °F - 26.1 °F 89% 29.89 in - Calm Calm - N/A   Unknown
10:51 PM 30.0 °F - 26.1 °F 85% 29.86 in - Calm Calm - N/A   Unknown
11:51 PM 28.9 °F 25.2 °F 26.1 °F 89% 29.86 in - SSE 3.5 mph - N/A   Unknown